Tracking 32420 objects as of 9-Dec-2025
HD Live streaming from Space Station
objects crossing your sky now

STARLINK-32419

Track STARLINK-32419 now!
10-day predictions
STARLINK-32419 is classified as:


NORAD ID: 61637
Int'l Code: 2024-191S
Perigee: 489.5 km
Apogee: 490.9 km
Inclination: 43.0 °
Period: 94.3 minutes
Semi major axis: 6861 km
RCS: Unknown
Launch date: October 23, 2024
Source: United States (US)
Launch site: AIR FORCE EASTERN TEST RANGE (AFETR)
Your satellite tracking list
Your tracking list is empty




NASA's NSSDC Master Catalog

Two Line Element Set (TLE):
1 61637U 24191S   25342.60068339 -.00000310  00000-0 -17344-5 0  9991
2 61637  43.0026 309.0874 0001077 248.8921 111.1816 15.27578829 63608
Source of the keplerian elements: AFSPC